| time (UTC) | temp F | wind direction | speed MPH | gust MPH | rain 1hr in | rain 24hr in | rain mn in | humidity % | barometer mb |
| 20260906205522 | 90 | 113 | 1.0 | 8.0 | 0.00 | 0.00 | 0.00 | 59 | 1011.2 |
| 20260906205022 | 90 | 107 | 1.0 | 7.0 | 0.00 | 0.00 | 0.00 | 58 | 1011.2 |
| 20260906204522 | 91 | 126 | 1.0 | 8.0 | 0.00 | 0.00 | 0.00 | 57 | 1011.2 |
| 20260906203522 | 93 | 103 | 4.0 | 8.0 | 0.00 | 0.00 | 0.00 | 54 | 1011.3 |
| 20260906203022 | 94 | 333 | 4.0 | 8.0 | 0.00 | 0.00 | 0.00 | 52 | 1011.4 |
| 20260906202522 | 95 | 119 | 3.0 | 8.0 | 0.00 | 0.00 | 0.00 | 51 | 1011.3 |
| 20260906202022 | 95 | 125 | 1.0 | 7.0 | 0.00 | 0.00 | 0.00 | 50 | 1011.2 |
| 20260906201522 | 95 | 113 | 4.0 | 7.0 | 0.00 | 0.00 | 0.00 | 49 | 1011.1 |
| 20260906201022 | 95 | 269 | 2.0 | 4.0 | 0.00 | 0.00 | 0.00 | 49 | 1011.2 |
| 20260906200022 | 96 | 139 | 3.0 | 4.0 | 0.00 | 0.00 | 0.00 | 49 | 1011.4 |
| 20260906195522 | 96 | 169 | 2.0 | 3.0 | 0.00 | 0.00 | 0.00 | 50 | 1011.4 |
| 20260906195022 | 95 | 98 | 1.0 | 3.0 | 0.00 | 0.00 | 0.00 | 50 | 1011.5 |
| 20260906194522 | 95 | 114 | 3.0 | 3.0 | 0.00 | 0.00 | 0.00 | 52 | 1011.6 |
| 20260906194022 | 95 | 71 | 1.0 | 3.0 | 0.00 | 0.00 | 0.00 | 52 | 1011.6 |
| 20260906193522 | 94 | 316 | 3.0 | 3.0 | 0.00 | 0.00 | 0.00 | 53 | 1011.5 |
| 20260906193022 | 94 | 55 | 1.0 | 2.0 | 0.00 | 0.00 | 0.00 | 52 | 1011.5 |
| 20260906192022 | 94 | 69 | 1.0 | 7.0 | 0.00 | 0.00 | 0.00 | 53 | 1011.6 |
| 20260906191522 | 94 | 102 | 3.0 | 9.0 | 0.00 | 0.00 | 0.00 | 52 | 1011.6 |
| 20260906191022 | 95 | 98 | 7.0 | 9.0 | 0.00 | 0.00 | 0.00 | 53 | 1011.7 |
| 20260906190522 | 94 | 180 | 2.0 | 4.0 | 0.00 | 0.00 | 0.00 | 53 | 1011.7 |
| 20260906185521 | 93 | 113 | 2.0 | 2.0 | 0.00 | 0.00 | 0.00 | 56 | 1011.8 |
| 20260906185021 | 93 | 103 | 0.0 | 3.0 | 0.00 | 0.00 | 0.00 | 56 | 1012.0 |
| 20260906184022 | 92 | 17 | 0.0 | 6.0 | 0.00 | 0.00 | 0.00 | 56 | 1012.0 |
| 20260906183521 | 92 | 346 | 5.0 | 6.0 | 0.00 | 0.00 | 0.00 | 57 | 1012.0 |
| 20260906182521 | 92 | 299 | 1.0 | 4.0 | 0.00 | 0.00 | 0.00 | 56 | 1012.0 |
| 20260906182021 | 93 | 328 | 1.0 | 6.0 | 0.00 | 0.00 | 0.00 | 56 | 1012.1 |
| 20260906181521 | 93 | 134 | 1.0 | 6.0 | 0.00 | 0.00 | 0.00 | 57 | 1012.2 |
| 20260906181021 | 93 | 107 | 3.0 | 3.0 | 0.00 | 0.00 | 0.00 | 57 | 1012.3 |
| 20260906180521 | 94 | 78 | 2.0 | 3.0 | 0.00 | 0.00 | 0.00 | 58 | 1012.5 |
| 20260906175021 | 93 | 31 | 1.0 | 3.0 | 0.00 | 0.00 | 0.00 | 58 | 1012.8 |
| 20260906174522 | 93 | 119 | 2.0 | 3.0 | 0.00 | 0.00 | 0.00 | 59 | 1012.8 |
| 20260906174021 | 93 | 111 | 2.0 | 3.0 | 0.00 | 0.00 | 0.00 | 59 | 1012.9 |
| 20260906173521 | 93 | 355 | 1.0 | 8.0 | 0.00 | 0.00 | 0.00 | 61 | 1013.0 |
| 20260906173021 | 93 | 118 | 3.0 | 8.0 | 0.00 | 0.00 | 0.00 | 61 | 1013.1 |
| 20260906172521 | 92 | 134 | 2.0 | 3.0 | 0.00 | 0.00 | 0.00 | 61 | 1013.1 |
| 20260906172021 | 92 | 75 | 1.0 | 3.0 | 0.00 | 0.00 | 0.00 | 62 | 1013.2 |
| 20260906171021 | 91 | 74 | 0.0 | 5.0 | 0.00 | 0.00 | 0.00 | 63 | 1013.5 |
| 20260906170521 | 91 | 349 | 1.0 | 5.0 | 0.00 | 0.00 | 0.00 | 64 | 1013.6 |
| 20260906170021 | 91 | 125 | 4.0 | 4.0 | 0.00 | 0.00 | 0.00 | 64 | 1013.6 |
| 20260906165521 | 91 | 124 | 1.0 | 3.0 | 0.00 | 0.00 | 0.00 | 65 | 1013.6 |
| 20260906165020 | 90 | 101 | 0.0 | 4.0 | 0.00 | 0.00 | 0.00 | 65 | 1013.6 |
| 20260906164521 | 90 | 101 | 2.0 | 4.0 | 0.00 | 0.00 | 0.00 | 66 | 1013.7 |
| 20260906164020 | 89 | 140 | 0.0 | 2.0 | 0.00 | 0.00 | 0.00 | 67 | 1013.7 |
| 20260906163021 | 89 | 111 | 0.0 | 3.0 | 0.00 | 0.00 | 0.00 | 68 | 1013.7 |
| 20260906162521 | 89 | 113 | 1.0 | 3.0 | 0.00 | 0.00 | 0.00 | 69 | 1013.7 |
| 20260906162020 | 88 | 124 | 2.0 | 2.0 | 0.00 | 0.00 | 0.00 | 70 | 1013.6 |
| 20260906161520 | 88 | 70 | 1.0 | 2.0 | 0.00 | 0.00 | 0.00 | 71 | 1013.6 |
| 20260906160520 | 87 | 86 | 1.0 | 3.0 | 0.00 | 0.00 | 0.00 | 72 | 1013.7 |
| 20260906160020 | 87 | 312 | 1.0 | 4.0 | 0.00 | 0.00 | 0.00 | 72 | 1013.7 |
| 20260906155520 | 87 | 113 | 3.0 | 4.0 | 0.00 | 0.00 | 0.00 | 73 | 1013.7 |
| 20260906155020 | 86 | 168 | 1.0 | 7.0 | 0.00 | 0.00 | 0.00 | 74 | 1013.6 |
| 20260906153520 | 85 | 38 | 0.0 | 2.0 | 0.00 | 0.00 | 0.00 | 76 | 1013.7 |
| 20260906153020 | 85 | 170 | 0.0 | 4.0 | 0.00 | 0.00 | 0.00 | 76 | 1013.8 |
| 20260906152020 | 85 | 313 | 0.0 | 2.0 | 0.00 | 0.00 | 0.00 | 77 | 1013.7 |
| 20260906151520 | 84 | 253 | 0.0 | 3.0 | 0.00 | 0.00 | 0.00 | 77 | 1013.6 |
| 20260906151020 | 84 | 245 | 2.0 | 5.0 | 0.00 | 0.00 | 0.00 | 77 | 1013.6 |
| 20260906150520 | 84 | 190 | 2.0 | 5.0 | 0.00 | 0.00 | 0.00 | 78 | 1013.5 |
| 20260906150020 | 84 | 111 | 0.0 | 2.0 | 0.00 | 0.00 | 0.00 | 78 | 1013.5 |
| 20260906145520 | 84 | 282 | 2.0 | 4.0 | 0.00 | 0.00 | 0.00 | 78 | 1013.4 |
| 20260906145020 | 84 | 20 | 2.0 | 5.0 | 0.00 | 0.00 | 0.00 | 78 | 1013.4 |
| 20260906144520 | 84 | 192 | 2.0 | 5.0 | 0.00 | 0.00 | 0.00 | 78 | 1013.4 |
| 20260906144020 | 84 | 118 | 1.0 | 4.0 | 0.00 | 0.00 | 0.00 | 78 | 1013.4 |
| 20260906143520 | 84 | 229 | 3.0 | 4.0 | 0.00 | 0.00 | 0.00 | 78 | 1013.4 |
| 20260906143019 | 84 | 155 | 1.0 | 4.0 | 0.00 | 0.00 | 0.00 | 78 | 1013.4 |
| 20260906142020 | 84 | 215 | 5.0 | 5.0 | 0.00 | 0.00 | 0.00 | 79 | 1013.3 |
| 20260906141520 | 84 | 113 | 1.0 | 3.0 | 0.00 | 0.00 | 0.00 | 79 | 1013.2 |
| 20260906140020 | 83 | 225 | 0.0 | 5.0 | 0.00 | 0.00 | 0.00 | 79 | 1013.2 |
| 20260906135520 | 83 | 160 | 5.0 | 5.0 | 0.00 | 0.00 | 0.00 | 79 | 1013.3 |
| 20260906135019 | 83 | 165 | 1.0 | 4.0 | 0.00 | 0.00 | 0.00 | 79 | 1013.3 |
| 20260906133519 | 82 | 105 | 0.0 | 5.0 | 0.00 | 0.00 | 0.00 | 80 | 1012.9 |
| 20260906133019 | 82 | 155 | 3.0 | 5.0 | 0.00 | 0.00 | 0.00 | 80 | 1013.0 |
| 20260906132519 | 82 | 136 | 2.0 | 4.0 | 0.00 | 0.00 | 0.00 | 80 | 1012.9 |
| 20260906131519 | 81 | 177 | 0.0 | 7.0 | 0.00 | 0.00 | 0.00 | 80 | 1012.7 |
| 20260906131019 | 81 | 150 | 2.0 | 7.0 | 0.00 | 0.00 | 0.00 | 80 | 1012.7 |
| 20260906130019 | 81 | 146 | 0.0 | 3.0 | 0.00 | 0.00 | 0.00 | 80 | 1012.7 |
| 20260906125019 | 80 | 138 | 0.0 | 1.0 | 0.00 | 0.00 | 0.00 | 80 | 1012.5 |
| 20260906123518 | 80 | 138 | 0.0 | 1.0 | 0.00 | 0.00 | 0.00 | 80 | 1012.3 |
| 20260906123019 | 80 | 138 | 0.0 | 1.0 | 0.00 | 0.00 | 0.00 | 79 | 1012.3 |
| 20260906122018 | 80 | 138 | 0.0 | 2.0 | 0.00 | 0.00 | 0.00 | 79 | 1012.1 |
| 20260906121518 | 80 | 138 | 1.0 | 2.0 | 0.00 | 0.00 | 0.00 | 79 | 1012.0 |
| 20260906121018 | 80 | 138 | 0.0 | 0.0 | 0.00 | 0.00 | 0.00 | 79 | 1011.9 |
| 20260906120518 | 80 | 138 | 0.0 | 0.0 | 0.00 | 0.00 | 0.00 | 79 | 1011.9 |
| 20260906120018 | 80 | 138 | 0.0 | 0.0 | 0.00 | 0.00 | 0.00 | 79 | 1011.7 |
| 20260906115018 | 80 | 138 | 0.0 | 0.0 | 0.00 | 0.00 | 0.00 | 79 | 1011.6 |
| 20260906114518 | 80 | 138 | 0.0 | 2.0 | 0.00 | 0.00 | 0.00 | 79 | 1011.6 |
| 20260906114018 | 80 | 138 | 0.0 | 2.0 | 0.00 | 0.00 | 0.00 | 79 | 1011.5 |
| 20260906113517 | 80 | 130 | 0.0 | 0.0 | 0.00 | 0.00 | 0.00 | 79 | 1011.4 |
| 20260906113018 | 80 | 171 | 0.0 | 0.0 | 0.00 | 0.00 | 0.00 | 78 | 1011.3 |
| 20260906112517 | 80 | 171 | 0.0 | 0.0 | 0.00 | 0.00 | 0.00 | 78 | 1011.3 |
| 20260906112017 | 80 | 171 | 0.0 | 0.0 | 0.00 | 0.00 | 0.00 | 78 | 1011.3 |
| 20260906111517 | 81 | 171 | 0.0 | 0.0 | 0.00 | 0.00 | 0.00 | 78 | 1011.2 |
| 20260906111017 | 81 | 171 | 0.0 | 0.0 | 0.00 | 0.00 | 0.00 | 78 | 1011.0 |
| 20260906110518 | 81 | 171 | 0.0 | 0.0 | 0.00 | 0.00 | 0.00 | 78 | 1011.0 |
| 20260906110017 | 81 | 171 | 0.0 | 0.0 | 0.00 | 0.00 | 0.00 | 78 | 1010.9 |
| 20260906105517 | 81 | 171 | 0.0 | 0.0 | 0.00 | 0.00 | 0.00 | 78 | 1010.8 |
| 20260906105017 | 81 | 171 | 0.0 | 0.0 | 0.00 | 0.00 | 0.00 | 77 | 1010.8 |
| 20260906104517 | 81 | 171 | 0.0 | 0.0 | 0.00 | 0.00 | 0.00 | 77 | 1010.9 |
| 20260906104017 | 81 | 171 | 0.0 | 0.0 | 0.00 | 0.00 | 0.00 | 77 | 1010.8 |
| 20260906103517 | 81 | 171 | 0.0 | 0.0 | 0.00 | 0.00 | 0.00 | 77 | 1010.9 |
| 20260906101517 | 81 | 171 | 0.0 | 0.0 | 0.00 | 0.00 | 0.00 | 77 | 1010.8 |
| 20260906101017 | 81 | 171 | 0.0 | 0.0 | 0.00 | 0.00 | 0.00 | 77 | 1010.8 |
| 20260906100517 | 81 | 171 | 0.0 | 0.0 | 0.00 | 0.00 | 0.00 | 77 | 1010.8 |
| 20260906100017 | 81 | 171 | 0.0 | 0.0 | 0.00 | 0.00 | 0.00 | 77 | 1010.9 |
| 20260906095017 | 81 | 200 | 0.0 | 0.0 | 0.00 | 0.00 | 0.00 | 76 | 1011.0 |
| 20260906094517 | 81 | 200 | 0.0 | 0.0 | 0.00 | 0.00 | 0.00 | 76 | 1011.0 |
| 20260906094017 | 82 | 209 | 0.0 | 0.0 | 0.00 | 0.00 | 0.00 | 76 | 1011.0 |
| 20260906093517 | 82 | 166 | 0.0 | 0.0 | 0.00 | 0.00 | 0.00 | 76 | 1011.0 |
| 20260906093017 | 82 | 161 | 0.0 | 0.0 | 0.00 | 0.00 | 0.00 | 76 | 1011.0 |
| 20260906092016 | 82 | 236 | 0.0 | 1.0 | 0.00 | 0.00 | 0.00 | 76 | 1011.0 |
| 20260906091517 | 82 | 192 | 0.0 | 1.0 | 0.00 | 0.00 | 0.00 | 76 | 1011.0 |
| 20260906091017 | 82 | 156 | 0.0 | 1.0 | 0.00 | 0.00 | 0.00 | 76 | 1011.0 |
| 20260906090517 | 82 | 156 | 0.0 | 0.0 | 0.00 | 0.00 | 0.00 | 75 | 1011.0 |
| 20260906090016 | 82 | 156 | 0.0 | 1.0 | 0.00 | 0.00 | 0.00 | 75 | 1010.9 |
| 20260906085516 | 82 | 156 | 0.0 | 1.0 | 0.00 | 0.00 | 0.00 | 75 | 1010.8 |
| 20260906085016 | 82 | 156 | 0.0 | 0.0 | 0.00 | 0.00 | 0.00 | 75 | 1010.9 |
| 20260906083516 | 82 | 206 | 0.0 | 2.0 | 0.00 | 0.00 | 0.00 | 75 | 1010.8 |
| 20260906083016 | 82 | 229 | 0.0 | 2.0 | 0.00 | 0.00 | 0.00 | 74 | 1010.9 |
| 20260906082516 | 82 | 166 | 0.0 | 0.0 | 0.00 | 0.00 | 0.00 | 74 | 1010.9 |
| 20260906082016 | 82 | 214 | 0.0 | 0.0 | 0.00 | 0.00 | 0.00 | 74 | 1011.0 |
| 20260906081517 | 82 | 208 | 0.0 | 1.0 | 0.00 | 0.00 | 0.00 | 74 | 1011.1 |
| 20260906081016 | 82 | 125 | 0.0 | 3.0 | 0.00 | 0.00 | 0.00 | 74 | 1011.1 |
| 20260906075516 | 83 | 147 | 0.0 | 2.0 | 0.00 | 0.00 | 0.00 | 73 | 1011.2 |
| 20260906074516 | 83 | 223 | 2.0 | 2.0 | 0.00 | 0.00 | 0.00 | 73 | 1011.4 |
| 20260906074016 | 83 | 120 | 2.0 | 3.0 | 0.00 | 0.00 | 0.00 | 72 | 1011.4 |
| 20260906073516 | 83 | 133 | 1.0 | 3.0 | 0.00 | 0.00 | 0.00 | 72 | 1011.4 |
| 20260906073016 | 83 | 154 | 0.0 | 2.0 | 0.00 | 0.00 | 0.00 | 72 | 1011.4 |
| 20260906072516 | 84 | 146 | 1.0 | 3.0 | 0.00 | 0.00 | 0.00 | 72 | 1011.4 |
| 20260906072015 | 84 | 164 | 2.0 | 8.0 | 0.00 | 0.00 | 0.00 | 72 | 1011.5 |
| 20260906071515 | 84 | 180 | 1.0 | 8.0 | 0.00 | 0.00 | 0.00 | 71 | 1011.7 |
| 20260906065515 | 84 | 144 | 1.0 | 5.0 | 0.00 | 0.00 | 0.00 | 71 | 1011.7 |
| 20260906065015 | 84 | 219 | 5.0 | 5.0 | 0.00 | 0.00 | 0.00 | 70 | 1011.8 |
| 20260906064515 | 84 | 216 | 2.0 | 4.0 | 0.00 | 0.00 | 0.00 | 70 | 1011.9 |
| 20260906064016 | 84 | 257 | 0.0 | 3.0 | 0.00 | 0.00 | 0.00 | 70 | 1012.0 |
| 20260906063516 | 85 | 138 | 1.0 | 3.0 | 0.00 | 0.00 | 0.00 | 70 | 1012.1 |
| 20260906063015 | 85 | 198 | 1.0 | 4.0 | 0.00 | 0.00 | 0.00 | 70 | 1012.1 |
| 20260906062515 | 85 | 159 | 1.0 | 4.0 | 0.00 | 0.00 | 0.00 | 70 | 1012.0 |
| 20260906062015 | 85 | 227 | 1.0 | 5.0 | 0.00 | 0.00 | 0.00 | 69 | 1012.0 |
| 20260906061015 | 85 | 215 | 0.0 | 5.0 | 0.00 | 0.00 | 0.00 | 69 | 1012.1 |
| 20260906060515 | 85 | 133 | 5.0 | 5.0 | 0.00 | 0.00 | 0.00 | 69 | 1012.1 |
| 20260906060015 | 85 | 207 | 1.0 | 6.0 | 0.00 | 0.00 | 0.00 | 69 | 1012.1 |
| 20260906055515 | 85 | 119 | 4.0 | 6.0 | 0.00 | 0.00 | 0.00 | 69 | 1012.1 |
| 20260906055015 | 86 | 121 | 0.0 | 7.0 | 0.00 | 0.00 | 0.00 | 68 | 1012.1 |
| 20260906054515 | 86 | 168 | 4.0 | 7.0 | 0.00 | 0.00 | 0.00 | 68 | 1012.1 |
| 20260906054014 | 86 | 224 | 3.0 | 6.0 | 0.00 | 0.00 | 0.00 | 68 | 1012.0 |
| 20260906053514 | 86 | 232 | 5.0 | 5.0 | 0.00 | 0.00 | 0.00 | 67 | 1011.9 |
| 20260906053015 | 86 | 335 | 2.0 | 3.0 | 0.00 | 0.00 | 0.00 | 67 | 1011.9 |
| 20260906052515 | 86 | 124 | 0.0 | 3.0 | 0.00 | 0.00 | 0.00 | 66 | 1012.0 |
| 20260906052015 | 86 | 182 | 0.0 | 2.0 | 0.00 | 0.00 | 0.00 | 66 | 1012.1 |
| 20260906051515 | 86 | 153 | 1.0 | 3.0 | 0.00 | 0.00 | 0.00 | 66 | 1012.1 |
| 20260906050014 | 87 | 130 | 0.0 | 3.0 | 0.00 | 0.00 | 0.00 | 65 | 1012.1 |
| 20260906045514 | 87 | 235 | 1.0 | 5.0 | 0.00 | 0.00 | 0.00 | 65 | 1011.9 |
| 20260906045014 | 87 | 133 | 2.0 | 6.0 | 0.00 | 0.00 | 0.00 | 65 | 1011.9 |
| 20260906044514 | 87 | 213 | 3.0 | 6.0 | 0.00 | 0.00 | 0.00 | 64 | 1012.0 |
| 20260906044014 | 87 | 149 | 1.0 | 8.0 | 0.00 | 0.00 | 0.00 | 64 | 1012.0 |
| 20260906043514 | 87 | 140 | 1.0 | 8.0 | 0.00 | 0.00 | 0.00 | 64 | 1012.0 |
| 20260906043014 | 88 | 107 | 1.0 | 9.0 | 0.00 | 0.00 | 0.00 | 63 | 1012.2 |
| 20260906042514 | 88 | 124 | 7.0 | 9.0 | 0.00 | 0.00 | 0.00 | 63 | 1012.1 |
| 20260906042014 | 88 | 125 | 4.0 | 4.0 | 0.00 | 0.00 | 0.00 | 63 | 1012.1 |
| 20260906040514 | 88 | 133 | 3.0 | 5.0 | 0.00 | 0.00 | 0.00 | 62 | 1012.0 |
| 20260906035513 | 89 | 131 | 3.0 | 7.0 | 0.00 | 0.00 | 0.00 | 61 | 1011.9 |
| 20260906034513 | 89 | 139 | 1.0 | 4.0 | 0.00 | 0.00 | 0.00 | 60 | 1011.8 |
| 20260906034013 | 89 | 152 | 1.0 | 12.0 | 0.00 | 0.00 | 0.00 | 60 | 1011.8 |
| 20260906033514 | 89 | 161 | 5.0 | 12.0 | 0.00 | 0.00 | 0.00 | 60 | 1011.8 |
| 20260906033013 | 89 | 162 | 1.0 | 9.0 | 0.00 | 0.00 | 0.00 | 59 | 1011.8 |
| 20260906032513 | 90 | 133 | 2.0 | 9.0 | 0.00 | 0.00 | 0.00 | 59 | 1011.7 |
| 20260906032013 | 90 | 134 | 3.0 | 6.0 | 0.00 | 0.00 | 0.00 | 58 | 1011.7 |
| 20260906031513 | 90 | 201 | 4.0 | 7.0 | 0.00 | 0.00 | 0.00 | 57 | 1011.6 |
| 20260906030513 | 90 | 22 | 1.0 | 10.0 | 0.00 | 0.00 | 0.00 | 57 | 1011.4 |
| 20260906025513 | 91 | 146 | 3.0 | 4.0 | 0.00 | 0.00 | 0.00 | 55 | 1011.2 |
| 20260906025013 | 91 | 177 | 3.0 | 11.0 | 0.00 | 0.00 | 0.00 | 55 | 1011.0 |
| 20260906024513 | 91 | 123 | 5.0 | 11.0 | 0.00 | 0.00 | 0.00 | 55 | 1010.9 |
| 20260906024013 | 91 | 98 | 6.0 | 10.0 | 0.00 | 0.00 | 0.00 | 54 | 1010.7 |
| 20260906023512 | 91 | 144 | 6.0 | 6.0 | 0.00 | 0.00 | 0.00 | 53 | 1010.6 |
| 20260906023012 | 91 | 134 | 3.0 | 5.0 | 0.00 | 0.00 | 0.00 | 53 | 1010.5 |
| 20260906022512 | 92 | 133 | 2.0 | 4.0 | 0.00 | 0.00 | 0.00 | 53 | 1010.4 |
| 20260906021513 | 92 | 111 | 4.0 | 9.0 | 0.00 | 0.00 | 0.00 | 53 | 1009.9 |
| 20260906021012 | 92 | 107 | 3.0 | 7.0 | 0.00 | 0.00 | 0.00 | 53 | 1009.9 |
| 20260906020512 | 92 | 115 | 2.0 | 6.0 | 0.00 | 0.00 | 0.00 | 52 | 1009.7 |
| 20260906020012 | 92 | 130 | 2.0 | 6.0 | 0.00 | 0.00 | 0.00 | 52 | 1009.8 |
| 20260906015512 | 92 | 125 | 2.0 | 3.0 | 0.00 | 0.00 | 0.00 | 51 | 1009.7 |
| 20260906015012 | 93 | 133 | 2.0 | 3.0 | 0.00 | 0.00 | 0.00 | 51 | 1009.7 |
| 20260906013512 | 93 | 119 | 2.0 | 9.0 | 0.00 | 0.00 | 0.00 | 50 | 1009.6 |
| 20260906013012 | 93 | 101 | 0.0 | 9.0 | 0.00 | 0.00 | 0.00 | 50 | 1009.6 |
| 20260906012012 | 93 | 94 | 3.0 | 12.0 | 0.00 | 0.00 | 0.00 | 49 | 1009.4 |
| 20260906011512 | 92 | 87 | 4.0 | 7.0 | 0.00 | 0.00 | 0.00 | 49 | 1009.4 |
| 20260906011012 | 92 | 107 | 3.0 | 7.0 | 0.00 | 0.00 | 0.00 | 49 | 1009.4 |
| 20260906010512 | 92 | 120 | 3.0 | 3.0 | 0.00 | 0.00 | 0.00 | 49 | 1009.3 |
| 20260906010012 | 92 | 75 | 0.0 | 10.0 | 0.00 | 0.00 | 0.00 | 49 | 1009.3 |
| 20260906005512 | 92 | 133 | 3.0 | 10.0 | 0.00 | 0.00 | 0.00 | 49 | 1009.2 |
| 20260906005012 | 93 | 92 | 2.0 | 10.0 | 0.00 | 0.00 | 0.00 | 48 | 1009.4 |
| 20260906004012 | 95 | 188 | 5.0 | 11.0 | 0.00 | 0.00 | 0.00 | 45 | 1009.4 |
| 20260906003011 | 97 | 100 | 14.0 | 14.0 | 0.00 | 0.00 | 0.00 | 43 | 1009.4 |
| 20260906002511 | 97 | 101 | 8.0 | 11.0 | 0.00 | 0.00 | 0.00 | 42 | 1009.2 |
| 20260906001511 | 98 | 126 | 4.0 | 12.0 | 0.00 | 0.00 | 0.00 | 41 | 1009.1 |
| 20260906001011 | 98 | 155 | 7.0 | 12.0 | 0.00 | 0.00 | 0.00 | 40 | 1009.1 |
| 20260906000512 | 98 | 125 | 4.0 | 8.0 | 0.00 | 0.00 | 0.00 | 40 | 1009.1 |
| 20260906000011 | 99 | 145 | 3.0 | 7.0 | 0.00 | 0.00 | 0.00 | 39 | 1009.1 |
| 20260905235511 | 99 | 114 | 3.0 | 9.0 | 0.00 | 0.00 | 0.00 | 39 | 1009.0 |
| 20260905235011 | 99 | 294 | 3.0 | 10.0 | 0.00 | 0.00 | 0.00 | 38 | 1009.0 |
| 20260905234511 | 100 | 61 | 9.0 | 10.0 | 0.00 | 0.00 | 0.00 | 38 | 1009.1 |
| 20260905234011 | 100 | 104 | 6.0 | 7.0 | 0.00 | 0.00 | 0.00 | 38 | 1009.0 |
| 20260905233011 | 100 | 113 | 1.0 | 7.0 | 0.00 | 0.00 | 0.00 | 38 | 1008.9 |
| 20260905232511 | 100 | 253 | 0.0 | 1.0 | 0.00 | 0.00 | 0.00 | 38 | 1008.9 |
| 20260905232011 | 100 | 141 | 0.0 | 3.0 | 0.00 | 0.00 | 0.00 | 37 | 1008.9 |
| 20260905231011 | 100 | 228 | 1.0 | 4.0 | 0.00 | 0.00 | 0.00 | 38 | 1009.0 |
| 20260905230011 | 99 | 241 | 2.0 | 3.0 | 0.00 | 0.00 | 0.00 | 38 | 1008.9 |
| 20260905225011 | 99 | 123 | 1.0 | 2.0 | 0.00 | 0.00 | 0.00 | 39 | 1008.9 |
| 20260905224511 | 99 | 107 | 2.0 | 3.0 | 0.00 | 0.00 | 0.00 | 39 | 1008.9 |
| 20260905224010 | 99 | 113 | 0.0 | 4.0 | 0.00 | 0.00 | 0.00 | 39 | 1008.9 |
| 20260905223511 | 99 | 128 | 4.0 | 4.0 | 0.00 | 0.00 | 0.00 | 39 | 1008.9 |
| 20260905223010 | 99 | 90 | 0.0 | 9.0 | 0.00 | 0.00 | 0.00 | 38 | 1008.9 |
| 20260905222510 | 100 | 105 | 4.0 | 9.0 | 0.00 | 0.00 | 0.00 | 38 | 1009.0 |
| 20260905222010 | 100 | 75 | 3.0 | 5.0 | 0.00 | 0.00 | 0.00 | 37 | 1009.0 |
| 20260905221510 | 100 | 244 | 0.0 | 1.0 | 0.00 | 0.00 | 0.00 | 37 | 1009.1 |
| 20260905221010 | 100 | 94 | 1.0 | 4.0 | 0.00 | 0.00 | 0.00 | 37 | 1009.2 |
| 20260905220510 | 100 | 192 | 2.0 | 6.0 | 0.00 | 0.00 | 0.00 | 37 | 1009.2 |
| 20260905220010 | 101 | 85 | 3.0 | 6.0 | 0.00 | 0.00 | 0.00 | 37 | 1009.2 |
| 20260905215510 | 100 | 338 | 1.0 | 3.0 | 0.00 | 0.00 | 0.00 | 37 | 1009.1 |
| 20260905215010 | 101 | 228 | 2.0 | 5.0 | 0.00 | 0.00 | 0.00 | 36 | 1009.1 |
| 20260905214510 | 101 | 113 | 2.0 | 6.0 | 0.00 | 0.00 | 0.00 | 37 | 1009.2 |
| 20260905214010 | 101 | 107 | 2.0 | 6.0 | 0.00 | 0.00 | 0.00 | 37 | 1009.1 |
| 20260905213510 | 100 | 250 | 0.0 | 5.0 | 0.00 | 0.00 | 0.00 | 37 | 1009.1 |
| 20260905213010 | 100 | 126 | 0.0 | 7.0 | 0.00 | 0.00 | 0.00 | 37 | 1009.2 |
| 20260905212509 | 100 | 98 | 1.0 | 7.0 | 0.00 | 0.00 | 0.00 | 37 | 1009.2 |
| 20260905212009 | 100 | 115 | 2.0 | 2.0 | 0.00 | 0.00 | 0.00 | 37 | 1009.2 |
| 20260905211509 | 100 | 107 | 1.0 | 5.0 | 0.00 | 0.00 | 0.00 | 37 | 1009.2 |
| 20260905211009 | 100 | 132 | 2.0 | 5.0 | 0.00 | 0.00 | 0.00 | 37 | 1009.4 |
| 20260905210510 | 100 | 236 | 1.0 | 5.0 | 0.00 | 0.00 | 0.00 | 37 | 1009.4 |
| 20260905210009 | 100 | 155 | 3.0 | 4.0 | 0.00 | 0.00 | 0.00 | 38 | 1009.5 |